Location: Coupvray
(48.8929°N, 2.7967°E)
Time: 20:53:27
(UTC+00:00)

ERS-2 - Pass Details

Date: 14 July 2020
Orbit: 494 x 498 km, 98.5° (Epoch: 14 August)

Event Time Altitude Azimuth Distance (km) Brightness Sun altitude
Rises 02:29:43 0° 142° (SE) 2,572 5.6 -11.5°
Reaches altitude 10° 02:31:54 10° 132° (SE) 1,693 4.8 -11.3°
Maximum altitude 02:35:12 33° 67° (ENE) 848 3.9 -10.9°
Drops below altitude 10° 02:38:31 10° 3° (N) 1,705 5.7 -10.6°
Sets 02:40:43 0° 353° (N) 2,592 6.5 -10.4°
